FENGYUN 4B

Last updated on Fri Dec 19 2025 00:02:53 GMT+0000 (Coordinated Universal Time)

1 48808U 21047A 25352.68143777 -.00000305 00000+0 00000+0 0 9999 2 48808 0.0319 348.6230 0010168 20.9780 67.8295 1.00276766 16763
UTC large
Height (km)
Speed (km/s)
/
Latitude / Longitude
Inclination (degrees)
Orbital Period (minutes)
Azimuth
Elevation
Range (km)
Doppler Factor

Next 0 passes for location: London (51.5072 / 0.1276)

Sorry there are no passes over London.